M I D A S
Marine Information and Data Acquisition System
Tripno 822 of the Zeeleeuw from 2004-12-17 08:20:03 to 2004-12-17 16:27:23
Back to CruiseResearch ActivitiesStationsMapUnderway DataData graphs

EquipmentUnitsComments
TimeDGPSUTC
LatitudeDGPSDM.mWGS84
LongitudeDGPSDM.mWGS84
SpeedMeteo Stationm/sRelative wind speed
DirectionMeteo StationdegRelative wind direction
TemperatureMeteo Stationdeg CelciusAir temperature
PressureMeteo StationPaAtmospheric pressure
HumidityMeteo Station%Relative humidity
Missing or incorrect values are displayed as -999
Metereological data collected by the RV Zeeleeuw from 2004-12-17 06:34:48 to 2004-12-17 17:09:45
                                                                                    Next 1000 lines
Time Latitude Longitude Speed Direction Temperature Pressure Humidity
2004-12-17 06:34:58 51°13.602 2°56.105 -999 -999 -999 -999 -999
2004-12-17 06:35:03 51°13.6 2°56.104 -999 -999 -999 -999 -999
2004-12-17 06:35:08 51°13.6 2°56.103 -999 -999 -999 -999 -999
2004-12-17 06:35:13 51°13.6 2°56.103 -999 -999 -999 -999 -999
2004-12-17 06:35:18 51°13.6 2°56.103 -999 -999 -999 -999 -999
2004-12-17 06:35:23 51°13.6 2°56.104 -999 -999 -999 -999 -999
2004-12-17 06:35:28 51°13.6 2°56.104 -999 -999 -999 -999 -999
2004-12-17 06:35:33 51°13.6 2°56.104 -999 -999 -999 -999 -999
2004-12-17 06:35:38 51°13.6 2°56.104 -999 -999 -999 -999 -999
2004-12-17 06:35:43 51°13.6 2°56.104 -999 -999 -999 -999 -999
2004-12-17 06:35:48 51°13.599 2°56.104 -999 -999 -999 -999 -999
2004-12-17 06:35:53 51°13.599 2°56.104 -999 -999 -999 -999 -999
2004-12-17 06:35:58 51°13.598 2°56.104 -999 -999 -999 -999 -999
2004-12-17 06:36:03 51°13.598 2°56.103 -999 -999 -999 -999 -999
2004-12-17 06:36:08 51°13.597 2°56.103 -999 -999 -999 -999 -999
2004-12-17 06:36:13 51°13.597 2°56.103 -999 -999 -999 -999 -999
2004-12-17 06:36:18 51°13.597 2°56.103 -999 -999 -999 -999 -999
2004-12-17 06:36:23 51°13.597 2°56.103 -999 -999 -999 -999 -999
2004-12-17 06:36:28 51°13.596 2°56.103 -999 -999 -999 -999 -999
2004-12-17 06:36:33 51°13.596 2°56.103 -999 -999 -999 -999 -999
2004-12-17 06:36:38 51°13.596 2°56.103 -999 -999 -999 -999 -999
2004-12-17 06:36:43 51°13.596 2°56.102 -999 -999 -999 -999 -999
2004-12-17 06:36:48 51°13.596 2°56.102 -999 -999 -999 -999 -999
2004-12-17 06:36:53 51°13.596 2°56.102 -999 -999 -999 -999 -999
2004-12-17 06:36:58 51°13.596 2°56.102 -999 -999 -999 -999 -999
2004-12-17 06:37:03 51°13.596 2°56.102 -999 -999 -999 -999 -999
2004-12-17 06:37:08 51°13.595 2°56.102 -999 -999 -999 -999 -999
2004-12-17 06:37:13 51°13.595 2°56.102 -999 -999 -999 -999 -999
2004-12-17 06:37:18 51°13.595 2°56.101 -999 -999 -999 -999 -999
2004-12-17 06:37:23 51°13.596 2°56.101 -999 -999 -999 -999 -999
2004-12-17 06:37:28 51°13.596 2°56.101 -999 -999 -999 -999 -999
2004-12-17 06:37:33 51°13.596 2°56.101 -999 -999 -999 -999 -999
2004-12-17 06:37:38 51°13.596 2°56.101 -999 -999 -999 -999 -999
2004-12-17 06:37:43 51°13.596 2°56.101 -999 -999 -999 -999 -999
2004-12-17 06:37:48 51°13.596 2°56.101 -999 -999 -999 -999 -999
2004-12-17 06:37:53 51°13.596 2°56.101 -999 -999 -999 -999 -999
2004-12-17 06:37:58 51°13.596 2°56.101 -999 -999 -999 -999 -999
2004-12-17 06:38:03 51°13.595 2°56.101 -999 -999 -999 -999 -999
2004-12-17 06:38:08 51°13.595 2°56.101 -999 -999 -999 -999 -999
2004-12-17 06:38:13 51°13.595 2°56.101 -999 -999 -999 -999 -999
2004-12-17 06:38:18 51°13.595 2°56.102 -999 -999 -999 -999 -999
2004-12-17 06:38:23 51°13.594 2°56.102 -999 -999 -999 -999 -999
2004-12-17 06:38:28 51°13.594 2°56.101 -999 -999 -999 -999 -999
2004-12-17 06:38:33 51°13.594 2°56.101 -999 -999 -999 -999 -999
2004-12-17 06:38:38 51°13.594 2°56.101 -999 -999 -999 -999 -999
2004-12-17 06:38:43 51°13.595 2°56.101 -999 -999 -999 -999 -999
2004-12-17 06:38:48 51°13.595 2°56.101 -999 -999 -999 -999 -999
2004-12-17 06:38:53 51°13.595 2°56.101 -999 -999 -999 -999 -999
2004-12-17 06:38:58 51°13.595 2°56.101 -999 -999 -999 -999 -999
2004-12-17 06:39:04 51°13.595 2°56.101 -999 -999 -999 -999 -999
2004-12-17 06:39:09 51°13.595 2°56.101 -999 -999 -999 -999 -999
2004-12-17 06:39:14 51°13.595 2°56.101 -999 -999 -999 -999 -999
2004-12-17 06:39:19 51°13.595 2°56.101 -999 -999 -999 -999 -999
2004-12-17 06:39:24 51°13.595 2°56.101 -999 -999 -999 -999 -999
2004-12-17 06:39:29 51°13.595 2°56.101 -999 -999 -999 -999 -999
2004-12-17 06:39:33 51°13.595 2°56.101 -999 -999 -999 -999 -999
2004-12-17 06:39:39 51°13.595 2°56.101 -999 -999 -999 -999 -999
2004-12-17 06:39:44 51°13.595 2°56.101 -999 -999 -999 -999 -999
2004-12-17 06:39:49 51°13.595 2°56.101 -999 -999 -999 -999 -999
2004-12-17 06:39:53 51°13.595 2°56.101 -999 -999 -999 -999 -999
2004-12-17 06:39:59 51°13.595 2°56.101 -999 -999 -999 -999 -999
2004-12-17 06:40:04 51°13.595 2°56.101 -999 -999 -999 -999 -999
2004-12-17 06:40:09 51°13.595 2°56.101 -999 -999 -999 -999 -999
2004-12-17 06:40:13 51°13.595 2°56.101 -999 -999 -999 -999 -999
2004-12-17 06:40:19 51°13.595 2°56.101 -999 -999 -999 -999 -999
2004-12-17 06:40:24 51°13.595 2°56.101 -999 -999 -999 -999 -999
2004-12-17 06:40:29 51°13.595 2°56.101 -999 -999 -999 -999 -999
2004-12-17 06:40:33 51°13.595 2°56.101 -999 -999 -999 -999 -999
2004-12-17 06:40:39 51°13.595 2°56.101 -999 -999 -999 -999 -999
2004-12-17 06:40:44 51°13.595 2°56.101 -999 -999 -999 -999 -999
2004-12-17 06:40:49 51°13.595 2°56.101 -999 -999 -999 -999 -999
2004-12-17 06:40:53 51°13.595 2°56.101 -999 -999 -999 -999 -999
2004-12-17 06:40:59 51°13.595 2°56.101 -999 -999 -999 -999 -999
2004-12-17 06:41:04 51°13.595 2°56.101 -999 -999 -999 -999 -999
2004-12-17 06:41:09 51°13.595 2°56.101 -999 -999 -999 -999 -999
2004-12-17 06:41:13 51°13.595 2°56.101 -999 -999 -999 -999 -999
2004-12-17 06:41:19 51°13.595 2°56.101 -999 -999 -999 -999 -999
2004-12-17 06:41:24 51°13.595 2°56.101 -999 -999 -999 -999 -999
2004-12-17 06:41:29 51°13.595 2°56.101 -999 -999 -999 -999 -999
2004-12-17 06:41:33 51°13.595 2°56.101 -999 -999 -999 -999 -999
2004-12-17 06:41:39 51°13.595 2°56.101 -999 -999 -999 -999 -999
2004-12-17 06:41:44 51°13.595 2°56.101 -999 -999 -999 -999 -999
2004-12-17 06:41:49 51°13.595 2°56.101 -999 -999 -999 -999 -999
2004-12-17 06:41:53 51°13.596 2°56.101 -999 -999 -999 -999 -999
2004-12-17 06:41:59 51°13.596 2°56.101 -999 -999 -999 -999 -999
2004-12-17 06:42:04 51°13.596 2°56.1 -999 -999 -999 -999 -999
2004-12-17 06:42:09 51°13.596 2°56.1 -999 -999 -999 -999 -999
2004-12-17 06:42:13 51°13.596 2°56.1 -999 -999 -999 -999 -999
2004-12-17 06:42:19 51°13.596 2°56.1 -999 -999 -999 -999 -999
2004-12-17 06:42:24 51°13.596 2°56.1 -999 -999 -999 -999 -999
2004-12-17 06:42:29 51°13.596 2°56.1 -999 -999 -999 -999 -999
2004-12-17 06:42:33 51°13.596 2°56.1 -999 -999 -999 -999 -999
2004-12-17 06:42:39 51°13.596 2°56.101 -999 -999 -999 -999 -999
2004-12-17 06:42:44 51°13.596 2°56.101 -999 -999 -999 -999 -999
2004-12-17 06:42:49 51°13.596 2°56.101 -999 -999 -999 -999 -999
2004-12-17 06:42:53 51°13.596 2°56.101 -999 -999 -999 -999 -999
2004-12-17 06:42:59 51°13.596 2°56.101 -999 -999 -999 -999 -999
2004-12-17 06:43:04 51°13.596 2°56.101 -999 -999 -999 -999 -999
2004-12-17 06:43:09 51°13.596 2°56.101 -999 -999 -999 -999 -999
2004-12-17 06:43:13 51°13.596 2°56.101 -999 -999 -999 -999 -999
2004-12-17 06:43:19 51°13.596 2°56.101 -999 -999 -999 -999 -999
2004-12-17 06:43:24 51°13.596 2°56.101 -999 -999 -999 -999 -999
2004-12-17 06:43:29 51°13.596 2°56.101 -999 -999 -999 -999 -999
2004-12-17 06:43:33 51°13.596 2°56.101 -999 -999 -999 -999 -999
2004-12-17 06:43:39 51°13.596 2°56.101 -999 -999 -999 -999 -999
2004-12-17 06:43:44 51°13.596 2°56.101 -999 -999 -999 -999 -999
2004-12-17 06:43:49 51°13.596 2°56.101 -999 -999 -999 -999 -999
2004-12-17 06:43:53 51°13.596 2°56.101 -999 -999 -999 -999 -999
2004-12-17 06:43:59 51°13.596 2°56.101 -999 -999 -999 -999 -999
2004-12-17 06:44:04 51°13.596 2°56.101 -999 -999 -999 -999 -999
2004-12-17 06:44:09 51°13.596 2°56.101 -999 -999 -999 -999 -999
2004-12-17 06:44:13 51°13.596 2°56.101 -999 -999 -999 -999 -999
2004-12-17 06:44:19 51°13.596 2°56.101 -999 -999 -999 -999 -999
2004-12-17 06:44:24 51°13.596 2°56.101 -999 -999 -999 -999 -999
2004-12-17 06:44:29 51°13.596 2°56.102 -999 -999 -999 -999 -999
2004-12-17 06:44:33 51°13.596 2°56.102 -999 -999 -999 -999 -999
2004-12-17 06:44:39 51°13.596 2°56.102 -999 -999 -999 -999 -999
2004-12-17 06:44:44 51°13.596 2°56.102 -999 -999 -999 -999 -999
2004-12-17 06:44:49 51°13.596 2°56.102 -999 -999 -999 -999 -999
2004-12-17 06:44:53 51°13.596 2°56.102 -999 -999 -999 -999 -999
2004-12-17 06:44:59 51°13.596 2°56.102 -999 -999 -999 -999 -999
2004-12-17 06:45:04 51°13.595 2°56.102 -999 -999 -999 -999 -999
2004-12-17 06:45:09 51°13.595 2°56.102 -999 -999 -999 -999 -999
2004-12-17 06:45:13 51°13.595 2°56.102 -999 -999 -999 -999 -999
2004-12-17 06:45:19 51°13.595 2°56.102 -999 -999 -999 -999 -999
2004-12-17 06:45:24 51°13.595 2°56.102 -999 -999 -999 -999 -999
2004-12-17 06:45:29 51°13.595 2°56.102 -999 -999 -999 -999 -999
2004-12-17 06:45:33 51°13.595 2°56.102 -999 -999 -999 -999 -999
2004-12-17 06:45:39 51°13.595 2°56.102 -999 -999 -999 -999 -999
2004-12-17 06:45:44 51°13.594 2°56.102 -999 -999 -999 -999 -999
2004-12-17 06:45:49 51°13.594 2°56.102 -999 -999 -999 -999 -999
2004-12-17 06:45:53 51°13.594 2°56.102 -999 -999 -999 -999 -999
2004-12-17 06:45:59 51°13.594 2°56.102 -999 -999 -999 -999 -999
2004-12-17 06:46:04 51°13.594 2°56.102 -999 -999 -999 -999 -999
2004-12-17 06:46:09 51°13.594 2°56.102 -999 -999 -999 -999 -999
2004-12-17 06:46:13 51°13.594 2°56.102 -999 -999 -999 -999 -999
2004-12-17 06:46:19 51°13.594 2°56.102 -999 -999 -999 -999 -999
2004-12-17 06:46:24 51°13.594 2°56.102 -999 -999 -999 -999 -999
2004-12-17 06:46:29 51°13.594 2°56.102 -999 -999 -999 -999 -999
2004-12-17 06:46:33 51°13.594 2°56.102 -999 -999 -999 -999 -999
2004-12-17 06:46:39 51°13.594 2°56.102 -999 -999 -999 -999 -999
2004-12-17 06:46:44 51°13.593 2°56.102 -999 -999 -999 -999 -999
2004-12-17 06:46:49 51°13.593 2°56.102 -999 -999 -999 -999 -999
2004-12-17 06:46:53 51°13.593 2°56.102 -999 -999 -999 -999 -999
2004-12-17 06:46:59 51°13.593 2°56.102 -999 -999 -999 -999 -999
2004-12-17 06:47:04 51°13.593 2°56.102 -999 -999 -999 -999 -999
2004-12-17 06:47:09 51°13.594 2°56.102 -999 -999 -999 -999 -999
2004-12-17 06:47:13 51°13.594 2°56.102 -999 -999 -999 -999 -999
2004-12-17 06:47:19 51°13.594 2°56.102 -999 -999 -999 -999 -999
2004-12-17 06:47:24 51°13.594 2°56.102 -999 -999 -999 -999 -999
2004-12-17 06:47:29 51°13.594 2°56.102 -999 -999 -999 -999 -999
2004-12-17 06:47:33 51°13.594 2°56.102 -999 -999 -999 -999 -999
2004-12-17 06:47:39 51°13.594 2°56.102 -999 -999 -999 -999 -999
2004-12-17 06:47:44 51°13.594 2°56.102 -999 -999 -999 -999 -999
2004-12-17 06:47:49 51°13.594 2°56.102 -999 -999 -999 -999 -999
2004-12-17 06:47:53 51°13.594 2°56.102 -999 -999 -999 -999 -999
2004-12-17 06:47:59 51°13.594 2°56.102 -999 -999 -999 -999 -999
2004-12-17 06:48:04 51°13.594 2°56.102 -999 -999 -999 -999 -999
2004-12-17 06:48:09 51°13.594 2°56.102 -999 -999 -999 -999 -999
2004-12-17 06:48:13 51°13.594 2°56.102 -999 -999 -999 -999 -999
2004-12-17 06:48:19 51°13.594 2°56.102 -999 -999 -999 -999 -999
2004-12-17 06:48:24 51°13.594 2°56.102 -999 -999 -999 -999 -999
2004-12-17 06:48:29 51°13.594 2°56.102 -999 -999 -999 -999 -999
2004-12-17 06:48:33 51°13.594 2°56.102 -999 -999 -999 -999 -999
2004-12-17 06:48:39 51°13.594 2°56.102 -999 -999 -999 -999 -999
2004-12-17 06:48:44 51°13.594 2°56.102 -999 -999 -999 -999 -999
2004-12-17 06:48:49 51°13.594 2°56.102 -999 -999 -999 -999 -999
2004-12-17 06:48:53 51°13.594 2°56.102 -999 -999 -999 -999 -999
2004-12-17 06:48:59 51°13.594 2°56.102 -999 -999 -999 -999 -999
2004-12-17 06:49:04 51°13.594 2°56.102 -999 -999 -999 -999 -999
2004-12-17 06:49:09 51°13.594 2°56.102 -999 -999 -999 -999 -999
2004-12-17 06:49:13 51°13.594 2°56.102 -999 -999 -999 -999 -999
2004-12-17 06:49:19 51°13.594 2°56.102 -999 -999 -999 -999 -999
2004-12-17 06:49:24 51°13.594 2°56.102 -999 -999 -999 -999 -999
2004-12-17 06:49:29 51°13.594 2°56.102 -999 -999 -999 -999 -999
2004-12-17 06:49:33 51°13.594 2°56.102 -999 -999 -999 -999 -999
2004-12-17 06:49:39 51°13.594 2°56.102 -999 -999 -999 -999 -999
2004-12-17 06:49:44 51°13.594 2°56.102 -999 -999 -999 -999 -999
2004-12-17 06:49:49 51°13.594 2°56.102 -999 -999 -999 -999 -999
2004-12-17 06:49:53 51°13.595 2°56.102 -999 -999 -999 -999 -999
2004-12-17 06:49:59 51°13.595 2°56.102 -999 -999 -999 -999 -999
2004-12-17 06:50:04 51°13.595 2°56.102 -999 -999 -999 -999 -999
2004-12-17 06:50:09 51°13.595 2°56.102 -999 -999 -999 -999 -999
2004-12-17 06:50:13 51°13.595 2°56.102 -999 -999 -999 -999 -999
2004-12-17 06:50:19 51°13.595 2°56.102 -999 -999 -999 -999 -999
2004-12-17 06:50:24 51°13.595 2°56.102 -999 -999 -999 -999 -999
2004-12-17 06:50:29 51°13.595 2°56.102 -999 -999 -999 -999 -999
2004-12-17 06:50:33 51°13.595 2°56.102 -999 -999 -999 -999 -999
2004-12-17 06:50:39 51°13.595 2°56.102 -999 -999 -999 -999 -999
2004-12-17 06:50:44 51°13.595 2°56.102 -999 -999 -999 -999 -999
2004-12-17 06:50:49 51°13.596 2°56.102 -999 -999 -999 -999 -999
2004-12-17 06:50:53 51°13.596 2°56.102 -999 -999 -999 -999 -999
2004-12-17 06:50:59 51°13.596 2°56.102 -999 -999 -999 -999 -999
2004-12-17 06:51:04 51°13.596 2°56.102 -999 -999 -999 -999 -999
2004-12-17 06:51:09 51°13.596 2°56.102 -999 -999 -999 -999 -999
2004-12-17 06:51:13 51°13.596 2°56.102 -999 -999 -999 -999 -999
2004-12-17 06:51:19 51°13.596 2°56.102 -999 -999 -999 -999 -999
2004-12-17 06:51:24 51°13.596 2°56.102 -999 -999 -999 -999 -999
2004-12-17 06:51:29 51°13.596 2°56.102 -999 -999 -999 -999 -999
2004-12-17 06:51:33 51°13.596 2°56.102 -999 -999 -999 -999 -999
2004-12-17 06:51:39 51°13.596 2°56.102 -999 -999 -999 -999 -999
2004-12-17 06:51:44 51°13.596 2°56.102 -999 -999 -999 -999 -999
2004-12-17 06:51:49 51°13.596 2°56.102 -999 -999 -999 -999 -999
2004-12-17 06:51:53 51°13.596 2°56.102 -999 -999 -999 -999 -999
2004-12-17 06:51:59 51°13.596 2°56.102 -999 -999 -999 -999 -999
2004-12-17 06:52:04 51°13.596 2°56.102 -999 -999 -999 -999 -999
2004-12-17 06:52:09 51°13.596 2°56.102 -999 -999 -999 -999 -999
2004-12-17 06:52:13 51°13.596 2°56.102 -999 -999 -999 -999 -999
2004-12-17 06:52:19 51°13.596 2°56.102 -999 -999 -999 -999 -999
2004-12-17 06:52:24 51°13.596 2°56.102 -999 -999 -999 -999 -999
2004-12-17 06:52:29 51°13.596 2°56.102 -999 -999 -999 -999 -999
2004-12-17 06:52:33 51°13.596 2°56.102 -999 -999 -999 -999 -999
2004-12-17 06:52:39 51°13.596 2°56.102 -999 -999 -999 -999 -999
2004-12-17 06:52:44 51°13.596 2°56.102 -999 -999 -999 -999 -999
2004-12-17 06:52:49 51°13.596 2°56.102 -999 -999 -999 -999 -999
2004-12-17 06:52:53 51°13.595 2°56.102 -999 -999 -999 -999 -999
2004-12-17 06:52:59 51°13.595 2°56.102 -999 -999 -999 -999 -999
2004-12-17 06:53:04 51°13.595 2°56.102 -999 -999 -999 -999 -999
2004-12-17 06:53:09 51°13.595 2°56.102 -999 -999 -999 -999 -999
2004-12-17 06:53:13 51°13.595 2°56.103 -999 -999 -999 -999 -999
2004-12-17 06:53:19 51°13.594 2°56.103 -999 -999 -999 -999 -999
2004-12-17 06:53:24 51°13.594 2°56.103 -999 -999 -999 -999 -999
2004-12-17 06:53:29 51°13.594 2°56.103 -999 -999 -999 -999 -999
2004-12-17 06:53:33 51°13.594 2°56.103 -999 -999 -999 -999 -999
2004-12-17 06:53:39 51°13.594 2°56.103 -999 -999 -999 -999 -999
2004-12-17 06:53:44 51°13.594 2°56.102 -999 -999 -999 -999 -999
2004-12-17 06:53:49 51°13.594 2°56.102 -999 -999 -999 -999 -999
2004-12-17 06:53:53 51°13.594 2°56.102 -999 -999 -999 -999 -999
2004-12-17 06:53:59 51°13.594 2°56.102 -999 -999 -999 -999 -999
2004-12-17 06:54:04 51°13.594 2°56.102 -999 -999 -999 -999 -999
2004-12-17 06:54:09 51°13.594 2°56.102 -999 -999 -999 -999 -999
2004-12-17 06:54:13 51°13.594 2°56.102 -999 -999 -999 -999 -999
2004-12-17 06:54:19 51°13.594 2°56.102 -999 -999 -999 -999 -999
2004-12-17 06:54:24 51°13.594 2°56.102 -999 -999 -999 -999 -999
2004-12-17 06:54:29 51°13.594 2°56.102 -999 -999 -999 -999 -999
2004-12-17 06:54:33 51°13.594 2°56.103 -999 -999 -999 -999 -999
2004-12-17 06:54:39 51°13.594 2°56.103 -999 -999 -999 -999 -999
2004-12-17 06:54:44 51°13.594 2°56.103 -999 -999 -999 -999 -999
2004-12-17 06:54:49 51°13.594 2°56.103 -999 -999 -999 -999 -999
2004-12-17 06:54:53 51°13.595 2°56.103 -999 -999 -999 -999 -999
2004-12-17 06:54:59 51°13.595 2°56.104 -999 -999 -999 -999 -999
2004-12-17 06:55:04 51°13.594 2°56.104 -999 -999 -999 -999 -999
2004-12-17 06:55:09 51°13.594 2°56.104 -999 -999 -999 -999 -999
2004-12-17 06:55:13 51°13.594 2°56.104 -999 -999 -999 -999 -999
2004-12-17 06:55:19 51°13.594 2°56.104 -999 -999 -999 -999 -999
2004-12-17 06:55:24 51°13.594 2°56.104 -999 -999 -999 -999 -999
2004-12-17 06:55:29 51°13.594 2°56.104 -999 -999 -999 -999 -999
2004-12-17 06:55:33 51°13.594 2°56.104 -999 -999 -999 -999 -999
2004-12-17 06:55:39 51°13.594 2°56.104 -999 -999 -999 -999 -999
2004-12-17 06:55:44 51°13.594 2°56.104 -999 -999 -999 -999 -999
2004-12-17 06:55:49 51°13.594 2°56.104 -999 -999 -999 -999 -999
2004-12-17 06:55:53 51°13.594 2°56.104 -999 -999 -999 -999 -999
2004-12-17 06:55:59 51°13.594 2°56.103 -999 -999 -999 -999 -999
2004-12-17 06:56:04 51°13.593 2°56.103 -999 -999 -999 -999 -999
2004-12-17 06:56:09 51°13.593 2°56.103 -999 -999 -999 -999 -999
2004-12-17 06:56:13 51°13.593 2°56.103 -999 -999 -999 -999 -999
2004-12-17 06:56:19 51°13.592 2°56.103 -999 -999 -999 -999 -999
2004-12-17 06:56:24 51°13.592 2°56.103 -999 -999 -999 -999 -999
2004-12-17 06:56:29 51°13.592 2°56.103 -999 -999 -999 -999 -999
2004-12-17 06:56:33 51°13.592 2°56.103 -999 -999 -999 -999 -999
2004-12-17 06:56:39 51°13.592 2°56.103 -999 -999 -999 -999 -999
2004-12-17 06:56:44 51°13.592 2°56.103 -999 -999 -999 -999 -999
2004-12-17 06:56:49 51°13.592 2°56.103 -999 -999 -999 -999 -999
2004-12-17 06:56:53 51°13.592 2°56.103 -999 -999 -999 -999 -999
2004-12-17 06:56:59 51°13.592 2°56.102 -999 -999 -999 -999 -999
2004-12-17 06:57:04 51°13.592 2°56.102 -999 -999 -999 -999 -999
2004-12-17 06:57:09 51°13.591 2°56.102 -999 -999 -999 -999 -999
2004-12-17 06:57:13 51°13.591 2°56.102 -999 -999 -999 -999 -999
2004-12-17 06:57:19 51°13.591 2°56.102 -999 -999 -999 -999 -999
2004-12-17 06:57:24 51°13.591 2°56.102 -999 -999 -999 -999 -999
2004-12-17 06:57:29 51°13.591 2°56.102 -999 -999 -999 -999 -999
2004-12-17 06:57:33 51°13.591 2°56.102 -999 -999 -999 -999 -999
2004-12-17 06:57:39 51°13.591 2°56.102 -999 -999 -999 -999 -999
2004-12-17 06:57:44 51°13.591 2°56.102 -999 -999 -999 -999 -999
2004-12-17 06:57:49 51°13.591 2°56.102 -999 -999 -999 -999 -999
2004-12-17 06:57:53 51°13.592 2°56.102 -999 -999 -999 -999 -999
2004-12-17 06:57:59 51°13.592 2°56.102 -999 -999 -999 -999 -999
2004-12-17 06:58:04 51°13.592 2°56.102 -999 -999 -999 -999 -999
2004-12-17 06:58:09 51°13.592 2°56.102 -999 -999 -999 -999 -999
2004-12-17 06:58:13 51°13.592 2°56.102 -999 -999 -999 -999 -999
2004-12-17 06:58:19 51°13.592 2°56.102 -999 -999 -999 -999 -999
2004-12-17 06:58:24 51°13.591 2°56.102 -999 -999 -999 -999 -999
2004-12-17 06:58:29 51°13.591 2°56.102 -999 -999 -999 -999 -999
2004-12-17 06:58:33 51°13.591 2°56.102 -999 -999 -999 -999 -999
2004-12-17 06:58:39 51°13.591 2°56.102 -999 -999 -999 -999 -999
2004-12-17 06:58:44 51°13.591 2°56.102 -999 -999 -999 -999 -999
2004-12-17 06:58:49 51°13.591 2°56.102 -999 -999 -999 -999 -999
2004-12-17 06:58:53 51°13.591 2°56.102 -999 -999 -999 -999 -999
2004-12-17 06:58:59 51°13.591 2°56.102 -999 -999 -999 -999 -999
2004-12-17 06:59:04 51°13.591 2°56.103 -999 -999 -999 -999 -999
2004-12-17 06:59:09 51°13.591 2°56.103 -999 -999 -999 -999 -999
2004-12-17 06:59:13 51°13.592 2°56.103 -999 -999 -999 -999 -999
2004-12-17 06:59:19 51°13.592 2°56.103 -999 -999 -999 -999 -999
2004-12-17 06:59:24 51°13.592 2°56.103 -999 -999 -999 -999 -999
2004-12-17 06:59:29 51°13.592 2°56.103 -999 -999 -999 -999 -999
2004-12-17 06:59:33 51°13.592 2°56.102 -999 -999 -999 -999 -999
2004-12-17 06:59:39 51°13.592 2°56.102 -999 -999 -999 -999 -999
2004-12-17 06:59:44 51°13.592 2°56.102 -999 -999 -999 -999 -999
2004-12-17 06:59:49 51°13.593 2°56.102 -999 -999 -999 -999 -999
2004-12-17 06:59:53 51°13.593 2°56.102 -999 -999 -999 -999 -999
2004-12-17 06:59:59 51°13.593 2°56.102 -999 -999 -999 -999 -999
2004-12-17 07:00:04 51°13.593 2°56.102 -999 -999 -999 -999 -999
2004-12-17 07:00:09 51°13.593 2°56.102 -999 -999 -999 -999 -999
2004-12-17 07:00:13 51°13.593 2°56.103 -999 -999 -999 -999 -999
2004-12-17 07:00:19 51°13.593 2°56.103 -999 -999 -999 -999 -999
2004-12-17 07:00:24 51°13.593 2°56.103 -999 -999 -999 -999 -999
2004-12-17 07:00:29 51°13.593 2°56.102 -999 -999 -999 -999 -999
2004-12-17 07:00:33 51°13.593 2°56.102 -999 -999 -999 -999 -999
2004-12-17 07:00:39 51°13.593 2°56.102 -999 -999 -999 -999 -999
2004-12-17 07:00:44 51°13.593 2°56.102 -999 -999 -999 -999 -999
2004-12-17 07:00:49 51°13.593 2°56.102 -999 -999 -999 -999 -999
2004-12-17 07:00:53 51°13.593 2°56.102 -999 -999 -999 -999 -999
2004-12-17 07:00:59 51°13.593 2°56.102 -999 -999 -999 -999 -999
2004-12-17 07:01:04 51°13.594 2°56.102 -999 -999 -999 -999 -999
2004-12-17 07:01:09 51°13.594 2°56.102 -999 -999 -999 -999 -999
2004-12-17 07:01:13 51°13.594 2°56.102 -999 -999 -999 -999 -999
2004-12-17 07:01:19 51°13.594 2°56.102 -999 -999 -999 -999 -999
2004-12-17 07:01:24 51°13.594 2°56.102 -999 -999 -999 -999 -999
2004-12-17 07:01:29 51°13.594 2°56.102 -999 -999 -999 -999 -999
2004-12-17 07:01:33 51°13.594 2°56.102 -999 -999 -999 -999 -999
2004-12-17 07:01:39 51°13.594 2°56.102 -999 -999 -999 -999 -999
2004-12-17 07:01:44 51°13.594 2°56.102 -999 -999 -999 -999 -999
2004-12-17 07:01:49 51°13.594 2°56.102 -999 -999 -999 -999 -999
2004-12-17 07:01:53 51°13.594 2°56.102 -999 -999 -999 -999 -999
2004-12-17 07:01:59 51°13.594 2°56.102 -999 -999 -999 -999 -999
2004-12-17 07:02:04 51°13.594 2°56.102 -999 -999 -999 -999 -999
2004-12-17 07:02:09 51°13.594 2°56.102 -999 -999 -999 -999 -999
2004-12-17 07:02:13 51°13.594 2°56.102 -999 -999 -999 -999 -999
2004-12-17 07:02:19 51°13.594 2°56.102 -999 -999 -999 -999 -999
2004-12-17 07:02:24 51°13.594 2°56.102 -999 -999 -999 -999 -999
2004-12-17 07:02:29 51°13.594 2°56.102 -999 -999 -999 -999 -999
2004-12-17 07:02:33 51°13.594 2°56.102 -999 -999 -999 -999 -999
2004-12-17 07:02:39 51°13.594 2°56.102 -999 -999 -999 -999 -999
2004-12-17 07:02:44 51°13.594 2°56.102 -999 -999 -999 -999 -999
2004-12-17 07:02:49 51°13.594 2°56.102 -999 -999 -999 -999 -999
2004-12-17 07:02:53 51°13.594 2°56.102 -999 -999 -999 -999 -999
2004-12-17 07:02:59 51°13.594 2°56.102 -999 -999 -999 -999 -999
2004-12-17 07:03:04 51°13.594 2°56.102 -999 -999 -999 -999 -999
2004-12-17 07:03:09 51°13.594 2°56.102 -999 -999 -999 -999 -999
2004-12-17 07:03:13 51°13.594 2°56.102 -999 -999 -999 -999 -999
2004-12-17 07:03:19 51°13.595 2°56.102 -999 -999 -999 -999 -999
2004-12-17 07:03:24 51°13.595 2°56.102 -999 -999 -999 -999 -999
2004-12-17 07:03:29 51°13.595 2°56.102 -999 -999 -999 -999 -999
2004-12-17 07:03:33 51°13.595 2°56.102 -999 -999 -999 -999 -999
2004-12-17 07:03:39 51°13.595 2°56.102 -999 -999 -999 -999 -999
2004-12-17 07:03:44 51°13.595 2°56.102 -999 -999 -999 -999 -999
2004-12-17 07:03:49 51°13.595 2°56.102 -999 -999 -999 -999 -999
2004-12-17 07:03:53 51°13.595 2°56.102 -999 -999 -999 -999 -999
2004-12-17 07:03:59 51°13.595 2°56.102 -999 -999 -999 -999 -999
2004-12-17 07:04:04 51°13.595 2°56.102 -999 -999 -999 -999 -999
2004-12-17 07:04:09 51°13.595 2°56.102 -999 -999 -999 -999 -999
2004-12-17 07:04:13 51°13.595 2°56.102 -999 -999 -999 -999 -999
2004-12-17 07:04:19 51°13.596 2°56.102 -999 -999 -999 -999 -999
2004-12-17 07:04:24 51°13.596 2°56.102 -999 -999 -999 -999 -999
2004-12-17 07:04:29 51°13.596 2°56.102 -999 -999 -999 -999 -999
2004-12-17 07:04:33 51°13.596 2°56.102 -999 -999 -999 -999 -999
2004-12-17 07:04:39 51°13.596 2°56.102 -999 -999 -999 -999 -999
2004-12-17 07:04:44 51°13.596 2°56.103 -999 -999 -999 -999 -999
2004-12-17 07:04:49 51°13.596 2°56.102 -999 -999 -999 -999 -999
2004-12-17 07:04:53 51°13.596 2°56.102 -999 -999 -999 -999 -999
2004-12-17 07:04:59 51°13.596 2°56.102 -999 -999 -999 -999 -999
2004-12-17 07:05:04 51°13.596 2°56.102 -999 -999 -999 -999 -999
2004-12-17 07:05:09 51°13.596 2°56.102 -999 -999 -999 -999 -999
2004-12-17 07:05:13 51°13.596 2°56.102 -999 -999 -999 -999 -999
2004-12-17 07:05:19 51°13.596 2°56.102 -999 -999 -999 -999 -999
2004-12-17 07:05:24 51°13.596 2°56.102 -999 -999 -999 -999 -999
2004-12-17 07:05:29 51°13.596 2°56.102 -999 -999 -999 -999 -999
2004-12-17 07:05:33 51°13.597 2°56.102 -999 -999 -999 -999 -999
2004-12-17 07:05:39 51°13.597 2°56.102 -999 -999 -999 -999 -999
2004-12-17 07:05:44 51°13.597 2°56.102 -999 -999 -999 -999 -999
2004-12-17 07:05:49 51°13.597 2°56.102 -999 -999 -999 -999 -999
2004-12-17 07:05:53 51°13.597 2°56.102 -999 -999 -999 -999 -999
2004-12-17 07:05:59 51°13.597 2°56.102 -999 -999 -999 -999 -999
2004-12-17 07:06:04 51°13.597 2°56.102 -999 -999 -999 -999 -999
2004-12-17 07:06:09 51°13.597 2°56.102 -999 -999 -999 -999 -999
2004-12-17 07:06:13 51°13.597 2°56.102 -999 -999 -999 -999 -999
2004-12-17 07:06:19 51°13.597 2°56.102 -999 -999 -999 -999 -999
2004-12-17 07:06:24 51°13.597 2°56.102 -999 -999 -999 -999 -999
2004-12-17 07:06:29 51°13.597 2°56.102 -999 -999 -999 -999 -999
2004-12-17 07:06:33 51°13.597 2°56.102 -999 -999 -999 -999 -999
2004-12-17 07:06:39 51°13.597 2°56.102 -999 -999 -999 -999 -999
2004-12-17 07:06:44 51°13.597 2°56.102 -999 -999 -999 -999 -999
2004-12-17 07:06:49 51°13.596 2°56.102 -999 -999 -999 -999 -999
2004-12-17 07:06:53 51°13.596 2°56.102 -999 -999 -999 -999 -999
2004-12-17 07:06:59 51°13.596 2°56.101 -999 -999 -999 -999 -999
2004-12-17 07:07:04 51°13.596 2°56.101 -999 -999 -999 -999 -999
2004-12-17 07:07:09 51°13.596 2°56.101 -999 -999 -999 -999 -999
2004-12-17 07:07:14 51°13.596 2°56.101 -999 -999 -999 -999 -999
2004-12-17 07:07:19 51°13.596 2°56.101 -999 -999 -999 -999 -999
2004-12-17 07:07:24 51°13.596 2°56.101 -999 -999 -999 -999 -999
2004-12-17 07:07:29 51°13.596 2°56.101 -999 -999 -999 -999 -999
2004-12-17 07:07:33 51°13.596 2°56.101 -999 -999 -999 -999 -999
2004-12-17 07:07:39 51°13.597 2°56.101 -999 -999 -999 -999 -999
2004-12-17 07:07:44 51°13.596 2°56.101 -999 -999 -999 -999 -999
2004-12-17 07:07:49 51°13.596 2°56.101 -999 -999 -999 -999 -999
2004-12-17 07:07:53 51°13.596 2°56.101 -999 -999 -999 -999 -999
2004-12-17 07:07:59 51°13.596 2°56.101 -999 -999 -999 -999 -999
2004-12-17 07:08:04 51°13.597 2°56.101 -999 -999 -999 -999 -999
2004-12-17 07:08:09 51°13.597 2°56.101 -999 -999 -999 -999 -999
2004-12-17 07:08:13 51°13.597 2°56.101 -999 -999 -999 -999 -999
2004-12-17 07:08:19 51°13.597 2°56.101 -999 -999 -999 -999 -999
2004-12-17 07:08:24 51°13.597 2°56.101 -999 -999 -999 -999 -999
2004-12-17 07:08:29 51°13.597 2°56.101 -999 -999 -999 -999 -999
2004-12-17 07:08:33 51°13.597 2°56.101 -999 -999 -999 -999 -999
2004-12-17 07:08:39 51°13.597 2°56.101 -999 -999 -999 -999 -999
2004-12-17 07:08:44 51°13.597 2°56.101 -999 -999 -999 -999 -999
2004-12-17 07:08:49 51°13.596 2°56.101 -999 -999 -999 -999 -999
2004-12-17 07:08:54 51°13.596 2°56.101 -999 -999 -999 -999 -999
2004-12-17 07:08:59 51°13.597 2°56.101 -999 -999 -999 -999 -999
2004-12-17 07:09:04 51°13.597 2°56.101 -999 -999 -999 -999 -999
2004-12-17 07:09:09 51°13.597 2°56.101 -999 -999 -999 -999 -999
2004-12-17 07:09:14 51°13.597 2°56.101 -999 -999 -999 -999 -999
2004-12-17 07:09:19 51°13.597 2°56.101 -999 -999 -999 -999 -999
2004-12-17 07:09:24 51°13.596 2°56.101 -999 -999 -999 -999 -999
2004-12-17 07:09:29 51°13.596 2°56.101 -999 -999 -999 -999 -999
2004-12-17 07:09:33 51°13.596 2°56.101 -999 -999 -999 -999 -999
2004-12-17 07:09:39 51°13.596 2°56.101 -999 -999 -999 -999 -999
2004-12-17 07:09:44 51°13.596 2°56.101 -999 -999 -999 -999 -999
2004-12-17 07:09:49 51°13.596 2°56.101 -999 -999 -999 -999 -999
2004-12-17 07:09:53 51°13.596 2°56.101 -999 -999 -999 -999 -999
2004-12-17 07:09:59 51°13.596 2°56.101 -999 -999 -999 -999 -999
2004-12-17 07:10:04 51°13.596 2°56.101 -999 -999 -999 -999 -999
2004-12-17 07:10:09 51°13.596 2°56.101 -999 -999 -999 -999 -999
2004-12-17 07:10:13 51°13.596 2°56.101 -999 -999 -999 -999 -999
2004-12-17 07:10:19 51°13.596 2°56.101 -999 -999 -999 -999 -999
2004-12-17 07:10:24 51°13.596 2°56.101 -999 -999 -999 -999 -999
2004-12-17 07:10:29 51°13.596 2°56.102 -999 -999 -999 -999 -999
2004-12-17 07:10:34 51°13.596 2°56.102 -999 -999 -999 -999 -999
2004-12-17 07:10:39 51°13.596 2°56.102 -999 -999 -999 -999 -999
2004-12-17 07:10:44 51°13.596 2°56.102 -999 -999 -999 -999 -999
2004-12-17 07:10:49 51°13.596 2°56.101 -999 -999 -999 -999 -999
2004-12-17 07:10:54 51°13.596 2°56.101 -999 -999 -999 -999 -999
2004-12-17 07:10:59 51°13.596 2°56.101 -999 -999 -999 -999 -999
2004-12-17 07:11:04 51°13.596 2°56.101 -999 -999 -999 -999 -999
2004-12-17 07:11:09 51°13.596 2°56.101 -999 -999 -999 -999 -999
2004-12-17 07:11:13 51°13.596 2°56.101 -999 -999 -999 -999 -999
2004-12-17 07:11:19 51°13.596 2°56.101 -999 -999 -999 -999 -999
2004-12-17 07:11:24 51°13.596 2°56.101 -999 -999 -999 -999 -999
2004-12-17 07:11:29 51°13.596 2°56.101 -999 -999 -999 -999 -999
2004-12-17 07:11:33 51°13.596 2°56.101 -999 -999 -999 -999 -999
2004-12-17 07:11:39 51°13.596 2°56.101 -999 -999 -999 -999 -999
2004-12-17 07:11:44 51°13.596 2°56.101 -999 -999 -999 -999 -999
2004-12-17 07:11:49 51°13.596 2°56.101 -999 -999 -999 -999 -999
2004-12-17 07:11:53 51°13.596 2°56.102 -999 -999 -999 -999 -999
2004-12-17 07:11:59 51°13.596 2°56.102 -999 -999 -999 -999 -999
2004-12-17 07:12:04 51°13.596 2°56.102 -999 -999 -999 -999 -999
2004-12-17 07:12:09 51°13.596 2°56.102 -999 -999 -999 -999 -999
2004-12-17 07:12:13 51°13.596 2°56.102 -999 -999 -999 -999 -999
2004-12-17 07:12:19 51°13.596 2°56.102 -999 -999 -999 -999 -999
2004-12-17 07:12:24 51°13.596 2°56.102 -999 -999 -999 -999 -999
2004-12-17 07:12:29 51°13.596 2°56.102 -999 -999 -999 -999 -999
2004-12-17 07:12:34 51°13.596 2°56.102 -999 -999 -999 -999 -999
2004-12-17 07:12:39 51°13.596 2°56.102 -999 -999 -999 -999 -999
2004-12-17 07:12:44 51°13.596 2°56.101 -999 -999 -999 -999 -999
2004-12-17 07:12:49 51°13.596 2°56.101 -999 -999 -999 -999 -999
2004-12-17 07:12:54 51°13.596 2°56.101 -999 -999 -999 -999 -999
2004-12-17 07:12:59 51°13.596 2°56.102 -999 -999 -999 -999 -999
2004-12-17 07:13:04 51°13.596 2°56.102 -999 -999 -999 -999 -999
2004-12-17 07:13:09 51°13.596 2°56.102 -999 -999 -999 -999 -999
2004-12-17 07:13:13 51°13.596 2°56.102 -999 -999 -999 -999 -999
2004-12-17 07:13:19 51°13.596 2°56.102 -999 -999 -999 -999 -999
2004-12-17 07:13:24 51°13.596 2°56.102 -999 -999 -999 -999 -999
2004-12-17 07:13:29 51°13.596 2°56.102 -999 -999 -999 -999 -999
2004-12-17 07:13:33 51°13.596 2°56.102 -999 -999 -999 -999 -999
2004-12-17 07:13:39 51°13.596 2°56.102 -999 -999 -999 -999 -999
2004-12-17 07:13:44 51°13.596 2°56.102 -999 -999 -999 -999 -999
2004-12-17 07:13:49 51°13.596 2°56.102 -999 -999 -999 -999 -999
2004-12-17 07:13:53 51°13.596 2°56.102 -999 -999 -999 -999 -999
2004-12-17 07:13:59 51°13.596 2°56.102 -999 -999 -999 -999 -999
2004-12-17 07:14:04 51°13.596 2°56.102 -999 -999 -999 -999 -999
2004-12-17 07:14:09 51°13.596 2°56.102 -999 -999 -999 -999 -999
2004-12-17 07:14:14 51°13.596 2°56.102 -999 -999 -999 -999 -999
2004-12-17 07:14:19 51°13.596 2°56.102 -999 -999 -999 -999 -999
2004-12-17 07:14:24 51°13.596 2°56.102 -999 -999 -999 -999 -999
2004-12-17 07:14:29 51°13.596 2°56.102 -999 -999 -999 -999 -999
2004-12-17 07:14:33 51°13.596 2°56.102 -999 -999 -999 -999 -999
2004-12-17 07:14:39 51°13.596 2°56.102 -999 -999 -999 -999 -999
2004-12-17 07:14:44 51°13.596 2°56.102 -999 -999 -999 -999 -999
2004-12-17 07:14:49 51°13.596 2°56.102 -999 -999 -999 -999 -999
2004-12-17 07:14:53 51°13.596 2°56.102 -999 -999 -999 -999 -999
2004-12-17 07:14:59 51°13.596 2°56.102 -999 -999 -999 -999 -999
2004-12-17 07:15:04 51°13.596 2°56.102 -999 -999 -999 -999 -999
2004-12-17 07:15:09 51°13.596 2°56.102 -999 -999 -999 -999 -999
2004-12-17 07:15:13 51°13.596 2°56.102 -999 -999 -999 -999 -999
2004-12-17 07:15:19 51°13.596 2°56.102 -999 -999 -999 -999 -999
2004-12-17 07:15:24 51°13.596 2°56.102 -999 -999 -999 -999 -999
2004-12-17 07:15:29 51°13.596 2°56.102 -999 -999 -999 -999 -999
2004-12-17 07:15:33 51°13.596 2°56.102 -999 -999 -999 -999 -999
2004-12-17 07:15:39 51°13.596 2°56.102 -999 -999 -999 -999 -999
2004-12-17 07:15:44 51°13.596 2°56.102 -999 -999 -999 -999 -999
2004-12-17 07:15:49 51°13.596 2°56.102 -999 -999 -999 -999 -999
2004-12-17 07:15:54 51°13.596 2°56.102 -999 -999 -999 -999 -999
2004-12-17 07:15:59 51°13.596 2°56.102 -999 -999 -999 -999 -999
2004-12-17 07:16:04 51°13.596 2°56.102 -999 -999 -999 -999 -999
2004-12-17 07:16:09 51°13.596 2°56.102 -999 -999 -999 -999 -999
2004-12-17 07:16:13 51°13.596 2°56.101 -999 -999 -999 -999 -999
2004-12-17 07:16:19 51°13.596 2°56.101 -999 -999 -999 -999 -999
2004-12-17 07:16:24 51°13.596 2°56.101 -999 -999 -999 -999 -999
2004-12-17 07:16:29 51°13.596 2°56.101 -999 -999 -999 -999 -999
2004-12-17 07:16:33 51°13.596 2°56.101 -999 -999 -999 -999 -999
2004-12-17 07:16:39 51°13.596 2°56.101 -999 -999 -999 -999 -999
2004-12-17 07:16:44 51°13.596 2°56.101 -999 -999 -999 -999 -999
2004-12-17 07:16:49 51°13.596 2°56.101 -999 -999 -999 -999 -999
2004-12-17 07:16:53 51°13.596 2°56.101 -999 -999 -999 -999 -999
2004-12-17 07:16:59 51°13.596 2°56.101 -999 -999 -999 -999 -999
2004-12-17 07:17:04 51°13.596 2°56.101 -999 -999 -999 -999 -999
2004-12-17 07:17:09 51°13.596 2°56.101 -999 -999 -999 -999 -999
2004-12-17 07:17:13 51°13.596 2°56.101 -999 -999 -999 -999 -999
2004-12-17 07:17:19 51°13.596 2°56.101 -999 -999 -999 -999 -999
2004-12-17 07:17:24 51°13.596 2°56.101 -999 -999 -999 -999 -999
2004-12-17 07:17:29 51°13.596 2°56.101 -999 -999 -999 -999 -999
2004-12-17 07:17:34 51°13.596 2°56.101 -999 -999 -999 -999 -999
2004-12-17 07:17:39 51°13.596 2°56.101 -999 -999 -999 -999 -999
2004-12-17 07:17:44 51°13.596 2°56.101 -999 -999 -999 -999 -999
2004-12-17 07:17:49 51°13.597 2°56.101 -999 -999 -999 -999 -999
2004-12-17 07:17:53 51°13.597 2°56.101 -999 -999 -999 -999 -999
2004-12-17 07:17:59 51°13.597 2°56.101 -999 -999 -999 -999 -999
2004-12-17 07:18:04 51°13.596 2°56.101 -999 -999 -999 -999 -999
2004-12-17 07:18:09 51°13.596 2°56.102 -999 -999 -999 -999 -999
2004-12-17 07:18:13 51°13.596 2°56.102 -999 -999 -999 -999 -999
2004-12-17 07:18:19 51°13.596 2°56.102 -999 -999 -999 -999 -999
2004-12-17 07:18:24 51°13.596 2°56.102 -999 -999 -999 -999 -999
2004-12-17 07:18:29 51°13.596 2°56.102 -999 -999 -999 -999 -999
2004-12-17 07:18:33 51°13.596 2°56.102 -999 -999 -999 -999 -999
2004-12-17 07:18:39 51°13.596 2°56.102 -999 -999 -999 -999 -999
2004-12-17 07:18:44 51°13.596 2°56.102 -999 -999 -999 -999 -999
2004-12-17 07:18:49 51°13.596 2°56.102 -999 -999 -999 -999 -999
2004-12-17 07:18:53 51°13.596 2°56.102 -999 -999 -999 -999 -999
2004-12-17 07:18:59 51°13.596 2°56.102 -999 -999 -999 -999 -999
2004-12-17 07:19:04 51°13.596 2°56.102 -999 -999 -999 -999 -999
2004-12-17 07:19:09 51°13.596 2°56.102 -999 -999 -999 -999 -999
2004-12-17 07:19:14 51°13.596 2°56.102 -999 -999 -999 -999 -999
2004-12-17 07:19:19 51°13.596 2°56.102 -999 -999 -999 -999 -999
2004-12-17 07:19:24 51°13.596 2°56.102 -999 -999 -999 -999 -999
2004-12-17 07:19:29 51°13.596 2°56.102 -999 -999 -999 -999 -999
2004-12-17 07:19:33 51°13.596 2°56.102 -999 -999 -999 -999 -999
2004-12-17 07:19:39 51°13.596 2°56.102 -999 -999 -999 -999 -999
2004-12-17 07:19:44 51°13.596 2°56.102 -999 -999 -999 -999 -999
2004-12-17 07:19:49 51°13.596 2°56.102 -999 -999 -999 -999 -999
2004-12-17 07:19:53 51°13.596 2°56.102 -999 -999 -999 -999 -999
2004-12-17 07:19:59 51°13.596 2°56.102 -999 -999 -999 -999 -999
2004-12-17 07:20:04 51°13.596 2°56.102 -999 -999 -999 -999 -999
2004-12-17 07:20:09 51°13.596 2°56.102 -999 -999 -999 -999 -999
2004-12-17 07:20:13 51°13.596 2°56.102 -999 -999 -999 -999 -999
2004-12-17 07:20:19 51°13.596 2°56.102 -999 -999 -999 -999 -999
2004-12-17 07:20:24 51°13.596 2°56.102 -999 -999 -999 -999 -999
2004-12-17 07:20:29 51°13.596 2°56.102 -999 -999 -999 -999 -999
2004-12-17 07:20:34 51°13.596 2°56.102 -999 -999 -999 -999 -999
2004-12-17 07:20:39 51°13.596 2°56.102 -999 -999 -999 -999 -999
2004-12-17 07:20:44 51°13.596 2°56.102 -999 -999 -999 -999 -999
2004-12-17 07:20:49 51°13.596 2°56.102 -999 -999 -999 -999 -999
2004-12-17 07:20:54 51°13.596 2°56.102 -999 -999 -999 -999 -999
2004-12-17 07:20:59 51°13.596 2°56.102 -999 -999 -999 -999 -999
2004-12-17 07:21:04 51°13.595 2°56.102 -999 -999 -999 -999 -999
2004-12-17 07:21:09 51°13.595 2°56.102 -999 -999 -999 -999 -999
2004-12-17 07:21:13 51°13.595 2°56.102 -999 -999 -999 -999 -999
2004-12-17 07:21:19 51°13.595 2°56.102 -999 -999 -999 -999 -999
2004-12-17 07:21:24 51°13.596 2°56.102 -999 -999 -999 -999 -999
2004-12-17 07:21:29 51°13.596 2°56.102 -999 -999 -999 -999 -999
2004-12-17 07:21:33 51°13.596 2°56.102 -999 -999 -999 -999 -999
2004-12-17 07:21:39 51°13.596 2°56.102 -999 -999 -999 -999 -999
2004-12-17 07:21:44 51°13.596 2°56.102 -999 -999 -999 -999 -999
2004-12-17 07:21:49 51°13.596 2°56.102 -999 -999 -999 -999 -999
2004-12-17 07:21:53 51°13.596 2°56.102 -999 -999 -999 -999 -999
2004-12-17 07:21:59 51°13.596 2°56.102 -999 -999 -999 -999 -999
2004-12-17 07:22:04 51°13.596 2°56.102 -999 -999 -999 -999 -999
2004-12-17 07:22:09 51°13.596 2°56.102 -999 -999 -999 -999 -999
2004-12-17 07:22:13 51°13.596 2°56.102 -999 -999 -999 -999 -999
2004-12-17 07:22:19 51°13.596 2°56.101 -999 -999 -999 -999 -999
2004-12-17 07:22:24 51°13.596 2°56.101 -999 -999 -999 -999 -999
2004-12-17 07:22:29 51°13.596 2°56.101 -999 -999 -999 -999 -999
2004-12-17 07:22:34 51°13.596 2°56.101 -999 -999 -999 -999 -999
2004-12-17 07:22:39 51°13.596 2°56.101 -999 -999 -999 -999 -999
2004-12-17 07:22:44 51°13.596 2°56.101 -999 -999 -999 -999 -999
2004-12-17 07:22:49 51°13.596 2°56.101 -999 -999 -999 -999 -999
2004-12-17 07:22:53 51°13.595 2°56.101 -999 -999 -999 -999 -999
2004-12-17 07:22:59 51°13.596 2°56.101 -999 -999 -999 -999 -999
2004-12-17 07:23:04 51°13.595 2°56.101 -999 -999 -999 -999 -999
2004-12-17 07:23:09 51°13.595 2°56.102 -999 -999 -999 -999 -999
2004-12-17 07:23:13 51°13.595 2°56.102 -999 -999 -999 -999 -999
2004-12-17 07:23:19 51°13.595 2°56.102 -999 -999 -999 -999 -999
2004-12-17 07:23:24 51°13.595 2°56.102 -999 -999 -999 -999 -999
2004-12-17 07:23:29 51°13.595 2°56.102 -999 -999 -999 -999 -999
2004-12-17 07:23:33 51°13.595 2°56.101 -999 -999 -999 -999 -999
2004-12-17 07:23:39 51°13.595 2°56.101 -999 -999 -999 -999 -999
2004-12-17 07:23:44 51°13.595 2°56.101 -999 -999 -999 -999 -999
2004-12-17 07:23:49 51°13.595 2°56.101 -999 -999 -999 -999 -999
2004-12-17 07:23:54 51°13.595 2°56.101 -999 -999 -999 -999 -999
2004-12-17 07:23:59 51°13.595 2°56.101 -999 -999 -999 -999 -999
2004-12-17 07:24:04 51°13.595 2°56.101 -999 -999 -999 -999 -999
2004-12-17 07:24:09 51°13.595 2°56.101 -999 -999 -999 -999 -999
2004-12-17 07:24:14 51°13.595 2°56.101 -999 -999 -999 -999 -999
2004-12-17 07:24:19 51°13.595 2°56.101 -999 -999 -999 -999 -999
2004-12-17 07:24:24 51°13.595 2°56.101 -999 -999 -999 -999 -999
2004-12-17 07:24:29 51°13.595 2°56.101 -999 -999 -999 -999 -999
2004-12-17 07:24:33 51°13.595 2°56.101 -999 -999 -999 -999 -999
2004-12-17 07:24:39 51°13.595 2°56.101 -999 -999 -999 -999 -999
2004-12-17 07:24:44 51°13.595 2°56.101 -999 -999 -999 -999 -999
2004-12-17 07:24:49 51°13.595 2°56.102 -999 -999 -999 -999 -999
2004-12-17 07:24:53 51°13.595 2°56.102 -999 -999 -999 -999 -999
2004-12-17 07:24:59 51°13.595 2°56.101 -999 -999 -999 -999 -999
2004-12-17 07:25:04 51°13.595 2°56.101 -999 -999 -999 -999 -999
2004-12-17 07:25:09 51°13.595 2°56.101 -999 -999 -999 -999 -999
2004-12-17 07:25:13 51°13.595 2°56.102 -999 -999 -999 -999 -999
2004-12-17 07:25:19 51°13.595 2°56.102 -999 -999 -999 -999 -999
2004-12-17 07:25:24 51°13.595 2°56.102 -999 -999 -999 -999 -999
2004-12-17 07:25:29 51°13.595 2°56.102 -999 -999 -999 -999 -999
2004-12-17 07:25:34 51°13.595 2°56.102 -999 -999 -999 -999 -999
2004-12-17 07:25:39 51°13.595 2°56.102 -999 -999 -999 -999 -999
2004-12-17 07:25:44 51°13.595 2°56.102 -999 -999 -999 -999 -999
2004-12-17 07:25:49 51°13.595 2°56.102 -999 -999 -999 -999 -999
2004-12-17 07:25:54 51°13.595 2°56.102 -999 -999 -999 -999 -999
2004-12-17 07:25:59 51°13.595 2°56.102 -999 -999 -999 -999 -999
2004-12-17 07:26:04 51°13.595 2°56.102 -999 -999 -999 -999 -999
2004-12-17 07:26:09 51°13.595 2°56.102 -999 -999 -999 -999 -999
2004-12-17 07:26:14 51°13.595 2°56.102 -999 -999 -999 -999 -999
2004-12-17 07:26:19 51°13.595 2°56.102 -999 -999 -999 -999 -999
2004-12-17 07:26:24 51°13.595 2°56.102 -999 -999 -999 -999 -999
2004-12-17 07:26:29 51°13.595 2°56.102 -999 -999 -999 -999 -999
2004-12-17 07:26:33 51°13.595 2°56.102 -999 -999 -999 -999 -999
2004-12-17 07:26:39 51°13.595 2°56.102 -999 -999 -999 -999 -999
2004-12-17 07:26:42 51°13.595 2°56.102 -999 -999 -999 -999 -999
2004-12-17 07:26:49 51°13.595 2°56.102 -999 -999 -999 -999 -999
2004-12-17 07:26:53 51°13.595 2°56.102 -999 -999 -999 -999 -999
2004-12-17 07:26:59 51°13.595 2°56.102 -999 -999 -999 -999 -999
2004-12-17 07:27:04 51°13.595 2°56.102 -999 -999 -999 -999 -999
2004-12-17 07:27:09 51°13.595 2°56.102 -999 -999 -999 -999 -999
2004-12-17 07:27:14 51°13.595 2°56.102 -999 -999 -999 -999 -999
2004-12-17 07:27:19 51°13.595 2°56.102 -999 -999 -999 -999 -999
2004-12-17 07:27:24 51°13.595 2°56.102 -999 -999 -999 -999 -999
2004-12-17 07:27:29 51°13.595 2°56.102 -999 -999 -999 -999 -999
2004-12-17 07:27:34 51°13.595 2°56.102 -999 -999 -999 -999 -999
2004-12-17 07:27:39 51°13.595 2°56.102 -999 -999 -999 -999 -999
2004-12-17 07:27:44 51°13.595 2°56.102 -999 -999 -999 -999 -999
2004-12-17 07:27:49 51°13.594 2°56.102 -999 -999 -999 -999 -999
2004-12-17 07:27:54 51°13.594 2°56.102 -999 -999 -999 -999 -999
2004-12-17 07:27:59 51°13.594 2°56.102 -999 -999 -999 -999 -999
2004-12-17 07:28:04 51°13.594 2°56.102 -999 -999 -999 -999 -999
2004-12-17 07:28:09 51°13.594 2°56.102 -999 -999 -999 -999 -999
2004-12-17 07:28:13 51°13.594 2°56.102 -999 -999 -999 -999 -999
2004-12-17 07:28:19 51°13.594 2°56.102 -999 -999 -999 -999 -999
2004-12-17 07:28:24 51°13.594 2°56.102 -999 -999 -999 -999 -999
2004-12-17 07:28:29 51°13.594 2°56.102 -999 -999 -999 -999 -999
2004-12-17 07:28:33 51°13.594 2°56.102 -999 -999 -999 -999 -999
2004-12-17 07:28:39 51°13.595 2°56.102 -999 -999 -999 -999 -999
2004-12-17 07:28:44 51°13.595 2°56.102 -999 -999 -999 -999 -999
2004-12-17 07:28:49 51°13.595 2°56.101 -999 -999 -999 -999 -999
2004-12-17 07:28:54 51°13.595 2°56.102 -999 -999 -999 -999 -999
2004-12-17 07:28:59 51°13.595 2°56.101 -999 -999 -999 -999 -999
2004-12-17 07:29:04 51°13.595 2°56.102 -999 -999 -999 -999 -999
2004-12-17 07:29:09 51°13.595 2°56.102 -999 -999 -999 -999 -999
2004-12-17 07:29:14 51°13.595 2°56.102 -999 -999 -999 -999 -999
2004-12-17 07:29:19 51°13.595 2°56.102 -999 -999 -999 -999 -999
2004-12-17 07:29:24 51°13.595 2°56.102 -999 -999 -999 -999 -999
2004-12-17 07:29:29 51°13.596 2°56.102 -999 -999 -999 -999 -999
2004-12-17 07:29:34 51°13.596 2°56.101 -999 -999 -999 -999 -999
2004-12-17 07:29:39 51°13.596 2°56.101 -999 -999 -999 -999 -999
2004-12-17 07:29:44 51°13.596 2°56.101 -999 -999 -999 -999 -999
2004-12-17 07:29:49 51°13.596 2°56.101 -999 -999 -999 -999 -999
2004-12-17 07:29:53 51°13.596 2°56.101 -999 -999 -999 -999 -999
2004-12-17 07:29:59 51°13.596 2°56.101 -999 -999 -999 -999 -999
2004-12-17 07:30:04 51°13.596 2°56.101 -999 -999 -999 -999 -999
2004-12-17 07:30:09 51°13.596 2°56.101 -999 -999 -999 -999 -999
2004-12-17 07:30:13 51°13.596 2°56.101 -999 -999 -999 -999 -999
2004-12-17 07:30:19 51°13.596 2°56.101 -999 -999 -999 -999 -999
2004-12-17 07:30:24 51°13.596 2°56.101 -999 -999 -999 -999 -999
2004-12-17 07:30:29 51°13.596 2°56.101 -999 -999 -999 -999 -999
2004-12-17 07:30:34 51°13.596 2°56.101 -999 -999 -999 -999 -999
2004-12-17 07:30:39 51°13.596 2°56.101 -999 -999 -999 -999 -999
2004-12-17 07:30:44 51°13.596 2°56.101 -999 -999 -999 -999 -999
2004-12-17 07:30:49 51°13.596 2°56.101 -999 -999 -999 -999 -999
2004-12-17 07:30:54 51°13.596 2°56.101 -999 -999 -999 -999 -999
2004-12-17 07:30:59 51°13.596 2°56.101 -999 -999 -999 -999 -999
2004-12-17 07:31:04 51°13.596 2°56.101 -999 -999 -999 -999 -999
2004-12-17 07:31:09 51°13.596 2°56.102 -999 -999 -999 -999 -999
2004-12-17 07:31:14 51°13.596 2°56.102 -999 -999 -999 -999 -999
2004-12-17 07:31:19 51°13.596 2°56.102 -999 -999 -999 -999 -999
2004-12-17 07:31:24 51°13.596 2°56.102 -999 -999 -999 -999 -999
2004-12-17 07:31:29 51°13.596 2°56.102 -999 -999 -999 -999 -999
2004-12-17 07:31:33 51°13.596 2°56.102 -999 -999 -999 -999 -999
2004-12-17 07:31:39 51°13.596 2°56.102 -999 -999 -999 -999 -999
2004-12-17 07:31:44 51°13.595 2°56.101 -999 -999 -999 -999 -999
2004-12-17 07:31:49 51°13.595 2°56.101 -999 -999 -999 -999 -999
2004-12-17 07:31:54 51°13.595 2°56.101 -999 -999 -999 -999 -999
2004-12-17 07:31:59 51°13.595 2°56.101 -999 -999 -999 -999 -999
2004-12-17 07:32:04 51°13.595 2°56.101 -999 -999 -999 -999 -999
2004-12-17 07:32:09 51°13.595 2°56.101 -999 -999 -999 -999 -999
2004-12-17 07:32:14 51°13.595 2°56.101 -999 -999 -999 -999 -999
2004-12-17 07:32:19 51°13.595 2°56.101 -999 -999 -999 -999 -999
2004-12-17 07:32:24 51°13.595 2°56.101 -999 -999 -999 -999 -999
2004-12-17 07:32:29 51°13.595 2°56.101 -999 -999 -999 -999 -999
2004-12-17 07:32:34 51°13.595 2°56.101 -999 -999 -999 -999 -999
2004-12-17 07:32:39 51°13.595 2°56.101 -999 -999 -999 -999 -999
2004-12-17 07:32:44 51°13.595 2°56.101 -999 -999 -999 -999 -999
2004-12-17 07:32:49 51°13.595 2°56.101 -999 -999 -999 -999 -999
2004-12-17 07:32:54 51°13.595 2°56.101 -999 -999 -999 -999 -999
2004-12-17 07:32:59 51°13.595 2°56.102 -999 -999 -999 -999 -999
2004-12-17 07:33:04 51°13.595 2°56.102 -999 -999 -999 -999 -999
2004-12-17 07:33:09 51°13.595 2°56.102 -999 -999 -999 -999 -999
2004-12-17 07:33:14 51°13.595 2°56.102 -999 -999 -999 -999 -999
2004-12-17 07:33:19 51°13.595 2°56.102 -999 -999 -999 -999 -999
2004-12-17 07:33:24 51°13.595 2°56.102 -999 -999 -999 -999 -999
2004-12-17 07:33:29 51°13.595 2°56.102 -999 -999 -999 -999 -999
2004-12-17 07:33:33 51°13.595 2°56.102 -999 -999 -999 -999 -999
2004-12-17 07:33:39 51°13.595 2°56.102 -999 -999 -999 -999 -999
2004-12-17 07:33:44 51°13.595 2°56.102 -999 -999 -999 -999 -999
2004-12-17 07:33:49 51°13.595 2°56.102 -999 -999 -999 -999 -999
2004-12-17 07:33:54 51°13.595 2°56.102 -999 -999 -999 -999 -999
2004-12-17 07:33:59 51°13.595 2°56.102 -999 -999 -999 -999 -999
2004-12-17 07:34:04 51°13.595 2°56.102 -999 -999 -999 -999 -999
2004-12-17 07:34:09 51°13.595 2°56.102 -999 -999 -999 -999 -999
2004-12-17 07:34:14 51°13.595 2°56.102 -999 -999 -999 -999 -999
2004-12-17 07:34:19 51°13.595 2°56.102 -999 -999 -999 -999 -999
2004-12-17 07:34:24 51°13.595 2°56.102 -999 -999 -999 -999 -999
2004-12-17 07:34:29 51°13.595 2°56.102 -999 -999 -999 -999 -999
2004-12-17 07:34:34 51°13.595 2°56.102 -999 -999 -999 -999 -999
2004-12-17 07:34:39 51°13.596 2°56.102 -999 -999 -999 -999 -999
2004-12-17 07:34:44 51°13.596 2°56.102 -999 -999 -999 -999 -999
2004-12-17 07:34:49 51°13.596 2°56.102 -999 -999 -999 -999 -999
2004-12-17 07:34:54 51°13.596 2°56.102 -999 -999 -999 -999 -999
2004-12-17 07:34:59 51°13.596 2°56.102 -999 -999 -999 -999 -999
2004-12-17 07:35:04 51°13.596 2°56.102 -999 -999 -999 -999 -999
2004-12-17 07:35:09 51°13.596 2°56.102 -999 -999 -999 -999 -999
2004-12-17 07:35:14 51°13.596 2°56.102 -999 -999 -999 -999 -999
2004-12-17 07:35:19 51°13.596 2°56.102 -999 -999 -999 -999 -999
2004-12-17 07:35:24 51°13.596 2°56.102 -999 -999 -999 -999 -999
2004-12-17 07:35:29 51°13.596 2°56.102 -999 -999 -999 -999 -999
2004-12-17 07:35:34 51°13.596 2°56.102 -999 -999 -999 -999 -999
2004-12-17 07:35:39 51°13.596 2°56.102 -999 -999 -999 -999 -999
2004-12-17 07:35:44 51°13.596 2°56.102 -999 -999 -999 -999 -999
2004-12-17 07:35:49 51°13.596 2°56.102 -999 -999 -999 -999 -999
2004-12-17 07:35:54 51°13.596 2°56.102 -999 -999 -999 -999 -999
2004-12-17 07:35:59 51°13.596 2°56.102 -999 -999 -999 -999 -999
2004-12-17 07:36:04 51°13.596 2°56.102 -999 -999 -999 -999 -999
2004-12-17 07:36:09 51°13.596 2°56.102 -999 -999 -999 -999 -999
2004-12-17 07:36:14 51°13.596 2°56.102 -999 -999 -999 -999 -999
2004-12-17 07:36:19 51°13.596 2°56.103 -999 -999 -999 -999 -999
2004-12-17 07:36:22 51°13.596 2°56.103 -999 -999 -999 -999 -999
2004-12-17 07:36:25 51°13.596 2°56.103 -999 -999 -999 -999 -999
2004-12-17 07:36:31 51°13.596 2°56.103 -999 -999 -999 -999 -999
2004-12-17 07:36:35 51°13.596 2°56.103 -999 -999 -999 -999 -999
2004-12-17 07:36:40 51°13.596 2°56.103 -999 -999 -999 -999 -999
2004-12-17 07:36:46 51°13.596 2°56.103 -999 -999 -999 -999 -999
2004-12-17 07:36:51 51°13.596 2°56.103 -999 -999 -999 -999 -999
2004-12-17 07:36:55 51°13.596 2°56.103 -999 -999 -999 -999 -999
2004-12-17 07:37:00 51°13.596 2°56.103 -999 -999 -999 -999 -999
2004-12-17 07:37:05 51°13.596 2°56.103 -999 -999 -999 -999 -999
2004-12-17 07:37:11 51°13.596 2°56.103 -999 -999 -999 -999 -999
2004-12-17 07:37:15 51°13.596 2°56.103 -999 -999 -999 -999 -999
2004-12-17 07:37:19 51°13.596 2°56.103 -999 -999 -999 -999 -999
2004-12-17 07:37:24 51°13.596 2°56.103 -999 -999 -999 -999 -999
2004-12-17 07:37:31 51°13.596 2°56.103 -999 -999 -999 -999 -999
2004-12-17 07:37:35 51°13.596 2°56.103 -999 -999 -999 -999 -999
2004-12-17 07:37:40 51°13.595 2°56.103 -999 -999 -999 -999 -999
2004-12-17 07:37:45 51°13.596 2°56.103 -999 -999 -999 -999 -999
2004-12-17 07:37:51 51°13.595 2°56.103 -999 -999 -999 -999 -999
2004-12-17 07:37:55 51°13.595 2°56.103 -999 -999 -999 -999 -999
2004-12-17 07:37:59 51°13.595 2°56.103 -999 -999 -999 -999 -999
2004-12-17 07:38:04 51°13.595 2°56.103 -999 -999 -999 -999 -999
2004-12-17 07:38:11 51°13.595 2°56.103 -999 -999 -999 -999 -999
2004-12-17 07:38:15 51°13.595 2°56.103 -999 -999 -999 -999 -999
2004-12-17 07:38:20 51°13.595 2°56.102 -999 -999 -999 -999 -999
2004-12-17 07:38:25 51°13.595 2°56.102 -999 -999 -999 -999 -999
2004-12-17 07:38:31 51°13.595 2°56.102 -999 -999 -999 -999 -999
2004-12-17 07:38:35 51°13.595 2°56.102 -999 -999 -999 -999 -999
2004-12-17 07:38:39 51°13.595 2°56.102 -999 -999 -999 -999 -999
2004-12-17 07:38:44 51°13.595 2°56.102 -999 -999 -999 -999 -999
2004-12-17 07:38:51 51°13.595 2°56.102 -999 -999 -999 -999 -999
2004-12-17 07:38:55 51°13.595 2°56.102 -999 -999 -999 -999 -999
2004-12-17 07:39:00 51°13.595 2°56.102 -999 -999 -999 -999 -999
2004-12-17 07:39:05 51°13.595 2°56.102 -999 -999 -999 -999 -999
2004-12-17 07:39:11 51°13.595 2°56.102 -999 -999 -999 -999 -999
2004-12-17 07:39:15 51°13.595 2°56.102 -999 -999 -999 -999 -999
2004-12-17 07:39:21 51°13.595 2°56.102 -999 -999 -999 -999 -999
2004-12-17 07:39:25 51°13.595 2°56.102 -999 -999 -999 -999 -999
2004-12-17 07:39:31 51°13.595 2°56.102 -999 -999 -999 -999 -999
2004-12-17 07:39:35 51°13.595 2°56.102 -999 -999 -999 -999 -999
2004-12-17 07:39:40 51°13.595 2°56.102 -999 -999 -999 -999 -999
2004-12-17 07:39:45 51°13.595 2°56.102 -999 -999 -999 -999 -999
2004-12-17 07:39:51 51°13.595 2°56.102 -999 -999 -999 -999 -999
2004-12-17 07:39:55 51°13.595 2°56.102 -999 -999 -999 -999 -999
2004-12-17 07:39:59 51°13.595 2°56.102 -999 -999 -999 -999 -999
2004-12-17 07:40:05 51°13.595 2°56.103 -999 -999 -999 -999 -999
2004-12-17 07:40:11 51°13.595 2°56.103 -999 -999 -999 -999 -999
2004-12-17 07:40:15 51°13.595 2°56.103 -999 -999 -999 -999 -999
2004-12-17 07:40:20 51°13.595 2°56.102 -999 -999 -999 -999 -999
2004-12-17 07:40:25 51°13.595 2°56.102 -999 -999 -999 -999 -999
2004-12-17 07:40:31 51°13.595 2°56.102 -999 -999 -999 -999 -999
2004-12-17 07:40:35 51°13.595 2°56.102 -999 -999 -999 -999 -999
2004-12-17 07:40:39 51°13.595 2°56.103 -999 -999 -999 -999 -999
2004-12-17 07:40:45 51°13.595 2°56.103 -999 -999 -999 -999 -999
2004-12-17 07:40:51 51°13.595 2°56.103 -999 -999 -999 -999 -999
2004-12-17 07:40:55 51°13.595 2°56.103 -999 -999 -999 -999 -999
2004-12-17 07:41:00 51°13.595 2°56.103 -999 -999 -999 -999 -999
2004-12-17 07:41:05 51°13.595 2°56.103 -999 -999 -999 -999 -999
2004-12-17 07:41:11 51°13.595 2°56.103 -999 -999 -999 -999 -999
2004-12-17 07:41:15 51°13.595 2°56.103 -999 -999 -999 -999 -999
2004-12-17 07:41:21 51°13.595 2°56.103 -999 -999 -999 -999 -999
2004-12-17 07:41:25 51°13.595 2°56.103 -999 -999 -999 -999 -999
2004-12-17 07:41:31 51°13.595 2°56.103 -999 -999 -999 -999 -999
2004-12-17 07:41:35 51°13.595 2°56.103 -999 -999 -999 -999 -999
2004-12-17 07:41:40 51°13.595 2°56.103 -999 -999 -999 -999 -999
2004-12-17 07:41:45 51°13.595 2°56.103 -999 -999 -999 -999 -999
2004-12-17 07:41:51 51°13.595 2°56.103 -999 -999 -999 -999 -999
2004-12-17 07:41:55 51°13.595 2°56.103 -999 -999 -999 -999 -999
2004-12-17 07:41:59 51°13.595 2°56.103 -999 -999 -999 -999 -999
2004-12-17 07:42:05 51°13.595 2°56.103 -999 -999 -999 -999 -999
2004-12-17 07:42:11 51°13.595 2°56.103 -999 -999 -999 -999 -999
2004-12-17 07:42:15 51°13.595 2°56.103 -999 -999 -999 -999 -999
2004-12-17 07:42:20 51°13.595 2°56.103 -999 -999 -999 -999 -999
2004-12-17 07:42:25 51°13.595 2°56.103 -999 -999 -999 -999 -999
2004-12-17 07:42:31 51°13.595 2°56.103 -999 -999 -999 -999 -999
2004-12-17 07:42:35 51°13.595 2°56.103 -999 -999 -999 -999 -999
2004-12-17 07:42:41 51°13.595 2°56.103 -999 -999 -999 -999 -999
2004-12-17 07:42:45 51°13.595 2°56.103 -999 -999 -999 -999 -999
2004-12-17 07:42:51 51°13.595 2°56.103 -999 -999 -999 -999 -999
2004-12-17 07:42:55 51°13.595 2°56.103 -999 -999 -999 -999 -999
2004-12-17 07:43:00 51°13.595 2°56.103 -999 -999 -999 -999 -999
2004-12-17 07:43:05 51°13.595 2°56.103 -999 -999 -999 -999 -999
2004-12-17 07:43:11 51°13.595 2°56.103 -999 -999 -999 -999 -999
2004-12-17 07:43:15 51°13.595 2°56.103 -999 -999 -999 -999 -999
2004-12-17 07:43:19 51°13.595 2°56.103 -999 -999 -999 -999 -999
2004-12-17 07:43:25 51°13.595 2°56.103 -999 -999 -999 -999 -999
2004-12-17 07:43:31 51°13.595 2°56.103 -999 -999 -999 -999 -999
2004-12-17 07:43:35 51°13.595 2°56.103 -999 -999 -999 -999 -999
2004-12-17 07:43:40 51°13.595 2°56.103 -999 -999 -999 -999 -999
2004-12-17 07:43:45 51°13.595 2°56.103 -999 -999 -999 -999 -999
2004-12-17 07:43:51 51°13.594 2°56.103 -999 -999 -999 -999 -999
2004-12-17 07:43:55 51°13.594 2°56.103 -999 -999 -999 -999 -999
2004-12-17 07:43:59 51°13.594 2°56.103 -999 -999 -999 -999 -999
2004-12-17 07:44:05 51°13.594 2°56.103 -999 -999 -999 -999 -999
2004-12-17 07:44:11 51°13.594 2°56.103 -999 -999 -999 -999 -999
2004-12-17 07:44:15 51°13.594 2°56.103 -999 -999 -999 -999 -999
2004-12-17 07:44:20 51°13.594 2°56.103 -999 -999 -999 -999 -999
2004-12-17 07:44:25 51°13.594 2°56.103 -999 -999 -999 -999 -999
2004-12-17 07:44:31 51°13.594 2°56.103 -999 -999 -999 -999 -999
2004-12-17 07:44:35 51°13.594 2°56.103 -999 -999 -999 -999 -999
2004-12-17 07:44:41 51°13.594 2°56.104 -999 -999 -999 -999 -999
2004-12-17 07:44:45 51°13.594 2°56.104 -999 -999 -999 -999 -999
2004-12-17 07:44:51 51°13.595 2°56.104 -999 -999 -999 -999 -999
2004-12-17 07:44:55 51°13.595 2°56.104 -999 -999 -999 -999 -999
2004-12-17 07:45:00 51°13.595 2°56.104 -999 -999 -999 -999 -999
2004-12-17 07:45:05 51°13.595 2°56.104 -999 -999 -999 -999 -999
2004-12-17 07:45:11 51°13.595 2°56.104 -999 -999 -999 -999 -999
2004-12-17 07:45:15 51°13.595 2°56.104 -999 -999 -999 -999 -999
2004-12-17 07:45:19 51°13.595 2°56.104 -999 -999 -999 -999 -999
2004-12-17 07:45:25 51°13.595 2°56.104 -999 -999 -999 -999 -999
2004-12-17 07:45:31 51°13.595 2°56.104 -999 -999 -999 -999 -999
2004-12-17 07:45:35 51°13.595 2°56.104 -999 -999 -999 -999 -999
2004-12-17 07:45:40 51°13.595 2°56.104 -999 -999 -999 -999 -999
2004-12-17 07:45:45 51°13.595 2°56.104 -999 -999 -999 -999 -999
2004-12-17 07:45:51 51°13.595 2°56.104 -999 -999 -999 -999 -999
2004-12-17 07:45:55 51°13.595 2°56.104 -999 -999 -999 -999 -999
2004-12-17 07:45:59 51°13.594 2°56.104 -999 -999 -999 -999 -999
2004-12-17 07:46:05 51°13.595 2°56.104 -999 -999 -999 -999 -999
2004-12-17 07:46:11 51°13.595 2°56.104 -999 -999 -999 -999 -999
2004-12-17 07:46:15 51°13.595 2°56.104 -999 -999 -999 -999 -999
2004-12-17 07:46:20 51°13.595 2°56.104 -999 -999 -999 -999 -999
2004-12-17 07:46:25 51°13.595 2°56.104 -999 -999 -999 -999 -999
2004-12-17 07:46:31 51°13.595 2°56.104 -999 -999 -999 -999 -999
2004-12-17 07:46:35 51°13.595 2°56.104 -999 -999 -999 -999 -999
2004-12-17 07:46:39 51°13.594 2°56.104 -999 -999 -999 -999 -999
2004-12-17 07:46:45 51°13.594 2°56.104 -999 -999 -999 -999 -999
2004-12-17 07:46:51 51°13.594 2°56.104 -999 -999 -999 -999 -999
2004-12-17 07:46:55 51°13.594 2°56.104 -999 -999 -999 -999 -999
2004-12-17 07:47:00 51°13.594 2°56.104 -999 -999 -999 -999 -999
2004-12-17 07:47:05 51°13.594 2°56.104 -999 -999 -999 -999 -999
2004-12-17 07:47:11 51°13.594 2°56.104 -999 -999 -999 -999 -999
2004-12-17 07:47:15 51°13.594 2°56.104 -999 -999 -999 -999 -999
2004-12-17 07:47:21 51°13.594 2°56.104 -999 -999 -999 -999 -999
2004-12-17 07:47:25 51°13.594 2°56.104 -999 -999 -999 -999 -999
2004-12-17 07:47:31 51°13.594 2°56.104 -999 -999 -999 -999 -999
2004-12-17 07:47:35 51°13.594 2°56.104 -999 -999 -999 -999 -999
2004-12-17 07:47:40 51°13.594 2°56.104 -999 -999 -999 -999 -999
2004-12-17 07:47:45 51°13.594 2°56.103 -999 -999 -999 -999 -999
2004-12-17 07:47:51 51°13.594 2°56.103 -999 -999 -999 -999 -999
2004-12-17 07:47:55 51°13.594 2°56.103 -999 -999 -999 -999 -999
2004-12-17 07:48:01 51°13.594 2°56.103 -999 -999 -999 -999 -999
2004-12-17 07:48:05 51°13.594 2°56.103 -999 -999 -999 -999 -999
2004-12-17 07:48:11 51°13.594 2°56.103 -999 -999 -999 -999 -999
2004-12-17 07:48:15 51°13.594 2°56.103 -999 -999 -999 -999 -999
2004-12-17 07:48:20 51°13.594 2°56.103 -999 -999 -999 -999 -999
2004-12-17 07:48:25 51°13.594 2°56.103 -999 -999 -999 -999 -999
2004-12-17 07:48:31 51°13.594 2°56.103 -999 -999 -999 -999 -999
2004-12-17 07:48:35 51°13.594 2°56.103 -999 -999 -999 -999 -999
2004-12-17 07:48:39 51°13.594 2°56.103 -999 -999 -999 -999 -999
2004-12-17 07:48:45 51°13.593 2°56.103 -999 -999 -999 -999 -999
2004-12-17 07:48:51 51°13.593 2°56.103 -999 -999 -999 -999 -999
2004-12-17 07:48:55 51°13.593 2°56.103 -999 -999 -999 -999 -999
2004-12-17 07:49:00 51°13.593 2°56.103 -999 -999 -999 -999 -999
2004-12-17 07:49:05 51°13.593 2°56.103 -999 -999 -999 -999 -999
2004-12-17 07:49:11 51°13.593 2°56.103 -999 -999 -999 -999 -999
2004-12-17 07:49:15 51°13.593 2°56.103 -999 -999 -999 -999 -999
2004-12-17 07:49:21 51°13.593 2°56.103 -999 -999 -999 -999 -999
2004-12-17 07:49:25 51°13.593 2°56.103 -999 -999 -999 -999 -999
2004-12-17 07:49:31 51°13.593 2°56.103 -999 -999 -999 -999 -999
2004-12-17 07:49:35 51°13.593 2°56.103 -999 -999 -999 -999 -999
2004-12-17 07:49:40 51°13.593 2°56.103 -999 -999 -999 -999 -999
2004-12-17 07:49:45 51°13.593 2°56.103 -999 -999 -999 -999 -999
2004-12-17 07:49:51 51°13.593 2°56.103 -999 -999 -999 -999 -999
2004-12-17 07:49:55 51°13.593 2°56.103 -999 -999 -999 -999 -999
2004-12-17 07:49:59 51°13.593 2°56.103 -999 -999 -999 -999 -999
2004-12-17 07:50:05 51°13.593 2°56.103 -999 -999 -999 -999 -999
2004-12-17 07:50:11 51°13.593 2°56.103 -999 -999 -999 -999 -999
2004-12-17 07:50:15 51°13.593 2°56.103 -999 -999 -999 -999 -999
2004-12-17 07:50:20 51°13.593 2°56.103 -999 -999 -999 -999 -999
2004-12-17 07:50:25 51°13.593 2°56.103 -999 -999 -999 -999 -999
2004-12-17 07:50:31 51°13.593 2°56.102 -999 -999 -999 -999 -999
2004-12-17 07:50:35 51°13.593 2°56.102 -999 -999 -999 -999 -999
2004-12-17 07:50:39 51°13.593 2°56.102 -999 -999 -999 -999 -999
2004-12-17 07:50:45 51°13.593 2°56.102 -999 -999 -999 -999 -999
2004-12-17 07:50:51 51°13.593 2°56.102 -999 -999 -999 -999 -999
2004-12-17 07:50:55 51°13.593 2°56.102 -999 -999 -999 -999 -999
2004-12-17 07:51:00 51°13.593 2°56.102 -999 -999 -999 -999 -999
2004-12-17 07:51:05 51°13.593 2°56.102 -999 -999 -999 -999 -999
2004-12-17 07:51:11 51°13.593 2°56.102 -999 -999 -999 -999 -999
2004-12-17 07:51:15 51°13.593 2°56.102 -999 -999 -999 -999 -999
2004-12-17 07:51:19 51°13.593 2°56.103 -999 -999 -999 -999 -999
2004-12-17 07:51:24 51°13.593 2°56.103 -999 -999 -999 -999 -999
2004-12-17 07:51:31 51°13.593 2°56.103 -999 -999 -999 -999 -999
2004-12-17 07:51:35 51°13.593 2°56.103 -999 -999 -999 -999 -999
2004-12-17 07:51:40 51°13.593 2°56.103 -999 -999 -999 -999 -999
2004-12-17 07:51:45 51°13.593 2°56.103 -999 -999 -999 -999 -999
2004-12-17 07:51:51 51°13.593 2°56.103 -999 -999 -999 -999 -999
2004-12-17 07:51:55 51°13.593 2°56.103 -999 -999 -999 -999 -999
2004-12-17 07:51:59 51°13.593 2°56.103 -999 -999 -999 -999 -999
2004-12-17 07:52:04 51°13.593 2°56.103 -999 -999 -999 -999 -999
2004-12-17 07:52:11 51°13.593 2°56.102 -999 -999 -999 -999 -999
2004-12-17 07:52:15 51°13.593 2°56.102 -999 -999 -999 -999 -999
2004-12-17 07:52:20 51°13.593 2°56.102 -999 -999 -999 -999 -999
2004-12-17 07:52:25 51°13.593 2°56.102 -999 -999 -999 -999 -999
2004-12-17 07:52:31 51°13.593 2°56.103 -999 -999 -999 -999 -999
2004-12-17 07:52:35 51°13.593 2°56.103 -999 -999 -999 -999 -999
2004-12-17 07:52:41 51°13.593 2°56.103 -999 -999 -999 -999 -999
2004-12-17 07:52:44 51°13.593 2°56.103 -999 -999 -999 -999 -999
2004-12-17 07:52:51 51°13.593 2°56.103 -999 -999 -999 -999 -999
2004-12-17 07:52:55 51°13.593 2°56.103 -999 -999 -999 -999 -999
2004-12-17 07:53:00 51°13.593 2°56.103 -999 -999 -999 -999 -999
2004-12-17 07:53:05 51°13.593 2°56.103 -999 -999 -999 -999 -999
2004-12-17 07:53:11 51°13.593 2°56.103 -999 -999 -999 -999 -999
2004-12-17 07:53:15 51°13.593 2°56.103 -999 -999 -999 -999 -999
2004-12-17 07:53:19 51°13.593 2°56.104 -999 -999 -999 -999 -999
2004-12-17 07:53:24 51°13.593 2°56.104 -999 -999 -999 -999 -999
2004-12-17 07:53:31 51°13.593 2°56.104 -999 -999 -999 -999 -999
2004-12-17 07:53:35 51°13.593 2°56.104 -999 -999 -999 -999 -999
2004-12-17 07:53:40 51°13.593 2°56.104 -999 -999 -999 -999 -999
2004-12-17 07:53:45 51°13.593 2°56.104 -999 -999 -999 -999 -999
2004-12-17 07:53:51 51°13.593 2°56.104 -999 -999 -999 -999 -999
2004-12-17 07:53:55 51°13.593 2°56.104 -999 -999 -999 -999 -999
2004-12-17 07:53:59 51°13.593 2°56.104 -999 -999 -999 -999 -999
2004-12-17 07:54:04 51°13.593 2°56.105 -999 -999 -999 -999 -999
2004-12-17 07:54:11 51°13.593 2°56.105 -999 -999 -999 -999 -999
2004-12-17 07:54:15 51°13.593 2°56.105 -999 -999 -999 -999 -999
2004-12-17 07:54:20 51°13.593 2°56.105 -999 -999 -999 -999 -999
2004-12-17 07:54:25 51°13.593 2°56.105 -999 -999 -999 -999 -999
2004-12-17 07:54:31 51°13.593 2°56.104 -999 -999 -999 -999 -999
2004-12-17 07:54:35 51°13.593 2°56.104 -999 -999 -999 -999 -999
2004-12-17 07:54:39 51°13.593 2°56.104 -999 -999 -999 -999 -999
2004-12-17 07:54:44 51°13.593 2°56.103 -999 -999 -999 -999 -999
2004-12-17 07:54:51 51°13.593 2°56.103 -999 -999 -999 -999 -999
2004-12-17 07:54:55 51°13.593 2°56.103 -999 -999 -999 -999 -999
2004-12-17 07:55:00 51°13.593 2°56.103 -999 -999 -999 -999 -999
2004-12-17 07:55:05 51°13.593 2°56.103 -999 -999 -999 -999 -999
2004-12-17 07:55:11 51°13.593 2°56.103 -999 -999 -999 -999 -999
2004-12-17 07:55:15 51°13.593 2°56.103 -999 -999 -999 -999 -999
2004-12-17 07:55:19 51°13.593 2°56.103 -999 -999 -999 -999 -999
2004-12-17 07:55:25 51°13.593 2°56.103 -999 -999 -999 -999 -999
2004-12-17 07:55:31 51°13.593 2°56.103 -999 -999 -999 -999 -999
2004-12-17 07:55:35 51°13.593 2°56.103 -999 -999 -999 -999 -999
2004-12-17 07:55:40 51°13.593 2°56.103 -999 -999 -999 -999 -999
2004-12-17 07:55:45 51°13.593 2°56.103 -999 -999 -999 -999 -999
2004-12-17 07:55:51 51°13.593 2°56.104 -999 -999 -999 -999 -999
2004-12-17 07:55:55 51°13.593 2°56.104 -999 -999 -999 -999 -999
2004-12-17 07:56:01 51°13.593 2°56.104 -999 -999 -999 -999 -999
2004-12-17 07:56:05 51°13.593 2°56.104 -999 -999 -999 -999 -999
2004-12-17 07:56:11 51°13.593 2°56.103 -999 -999 -999 -999 -999
2004-12-17 07:56:15 51°13.593 2°56.103 -999 -999 -999 -999 -999
2004-12-17 07:56:20 51°13.593 2°56.103 -999 -999 -999 -999 -999
2004-12-17 07:56:25 51°13.593 2°56.103 -999 -999 -999 -999 -999
2004-12-17 07:56:31 51°13.594 2°56.103 -999 -999 -999 -999 -999
2004-12-17 07:56:35 51°13.594 2°56.102 -999 -999 -999 -999 -999
2004-12-17 07:56:39 51°13.594 2°56.102 -999 -999 -999 -999 -999
2004-12-17 07:56:45 51°13.594 2°56.102 -999 -999 -999 -999 -999
2004-12-17 07:56:51 51°13.594 2°56.102 -999 -999 -999 -999 -999
2004-12-17 07:56:56 51°13.594 2°56.102 -999 -999 -999 -999 -999
2004-12-17 07:57:00 51°13.594 2°56.102 -999 -999 -999 -999 -999
2004-12-17 07:57:05 51°13.593 2°56.103 -999 -999 -999 -999 -999
2004-12-17 07:57:11 51°13.593 2°56.103 -999 -999 -999 -999 -999
2004-12-17 07:57:15 51°13.593 2°56.103 -999 -999 -999 -999 -999
2004-12-17 07:57:20 51°13.593 2°56.103 -999 -999 -999 -999 -999
2004-12-17 07:57:25 51°13.593 2°56.103 -999 -999 -999 -999 -999
2004-12-17 07:57:31 51°13.593 2°56.103 -999 -999 -999 -999 -999
2004-12-17 07:57:35 51°13.593 2°56.103 -999 -999 -999 -999 -999
2004-12-17 07:57:39 51°13.594 2°56.103 -999 -999 -999 -999 -999
2004-12-17 07:57:44 51°13.594 2°56.103 -999 -999 -999 -999 -999
2004-12-17 07:57:51 51°13.594 2°56.103 -999 -999 -999 -999 -999
2004-12-17 07:57:55 51°13.594 2°56.103 -999 -999 -999 -999 -999
2004-12-17 07:58:00 51°13.594 2°56.103 -999 -999 -999 -999 -999
2004-12-17 07:58:05 51°13.594 2°56.103 -999 -999 -999 -999 -999